This demonstration page uses our WeatherBlox Daily Observations layout. Learn more.

Left ArrowRight Arrow

Hourly Observations for March 26, 2018

Temp ( °F °C ) Dew Point ( °F °C ) Humidity (%) Winds ( mph kmh ) Pressure ( in mb ) Visibility ( mi km ) Precip ( " mm )
12:15 am 00:15 Partly Cloudy 36 2 32 undefined 87 87 N N/A 30.56 1035 10 16 N/A
12:35 am 00:35 Clear 34 1 32 undefined 93 93 N N/A 30.56 1035 10 16 N/A
12:55 am 00:55 Clear 32 undefined 32 undefined 100 100 N N/A 30.56 1035 10 16 N/A
1:15 am 01:15 Clear 32 undefined 32 undefined 100 100 N N/A 30.59 1036 10 16 N/A
1:35 am 01:35 Mostly Cloudy 34 1 32 undefined 93 93 N N/A 30.59 1036 10 16 N/A
1:55 am 01:55 Mostly Cloudy 36 2 32 undefined 87 87 ESE 3 6 30.59 1036 10 16 N/A
2:15 am 02:15 Partly Cloudy 32 undefined 32 undefined 100 100 N N/A 30.59 1036 10 16 N/A
2:35 am 02:35 Clear 32 undefined 32 undefined 100 100 N N/A 30.59 1036 10 16 N/A
2:55 am 02:55 Clear 32 undefined 32 undefined 100 100 N N/A 30.59 1036 10 16 N/A
4:35 am 04:35 Clear 30 -1 30 -1 100 100 N N/A 30.59 1036 7 11 N/A
5:35 am 05:35 Clear 30 -1 30 -1 100 100 N N/A 30.62 1037 7 11 N/A
5:55 am 05:55 Clear 30 -1 30 -1 100 100 N 3 6 30.62 1037 7 11 N/A
6:15 am 06:15 Clear 30 -1 30 -1 100 100 N N/A 30.62 1037 7 11 N/A
6:35 am 06:35 Clear 30 -1 30 -1 100 100 N N/A 30.62 1037 7 11 N/A
6:55 am 06:55 Clear 28 -2 28 -2 100 100 N N/A 30.62 1037 7 11 N/A
7:15 am 07:15 Sunny with Mist and Fog 28 -2 28 -2 100 100 N N/A 30.65 1038 5 8 N/A
7:35 am 07:35 Sunny with Mist and Fog 28 -2 28 -2 100 100 N 3 6 30.65 1038 5 8 N/A
7:55 am 07:55 Sunny with Mist and Fog 30 -1 30 -1 100 100 N N/A 30.65 1038 5 8 N/A
8:15 am 08:15 Sunny with Mist and Fog 32 undefined 32 undefined 100 100 NNE 3 6 30.68 1039 5 8 N/A
8:35 am 08:35 Sunny 32 undefined 32 undefined 100 100 N 3 6 30.68 1039 7 11 N/A
8:55 am 08:55 Sunny 34 1 32 undefined 93 93 NNE 3 6 30.68 1039 10 16 N/A
9:15 am 09:15 Sunny 36 2 32 undefined 87 87 N N/A 30.68 1039 10 16 N/A
9:35 am 09:35 Sunny 37 3 32 undefined 81 81 N N/A 30.68 1039 10 16 N/A
9:55 am 09:55 Sunny 39 4 32 undefined 75 75 NE 7 11 30.68 1039 10 16 N/A
10:15 am 10:15 Sunny 41 5 30 -1 66 66 ESE 6 9 30.68 1039 10 16 N/A
10:35 am 10:35 Sunny 41 5 28 -2 61 61 ENE 9 15 30.71 1040 10 16 N/A
10:55 am 10:55 Partly Cloudy 41 5 28 -2 61 61 ENE 8 13 30.71 1040 10 16 N/A
11:15 am 11:15 Partly Cloudy 43 6 28 -2 57 57 NE 6 9 30.71 1040 10 16 N/A
11:35 am 11:35 Sunny 43 6 27 -3 53 53 E 8 13 30.71 1040 10 16 N/A
11:55 am 11:55 Sunny 45 7 27 -3 49 49 SSE 6 9 30.68 1039 10 16 N/A
12:15 pm 12:15 Sunny 45 7 27 -3 49 49 E 5 7 30.68 1039 10 16 N/A
12:35 pm 12:35 Sunny 45 7 27 -3 49 49 ESE 8 13 30.68 1039 10 16 N/A
12:55 pm 12:55 Sunny 46 8 27 -3 46 46 E 3 6 30.68 1039 10 16 N/A
1:15 pm 13:15 Sunny 46 8 27 -3 46 46 NE 7 11 30.68 1039 10 16 N/A
1:35 pm 13:35 Sunny 46 8 25 -4 43 43 ENE 9 15 30.65 1038 10 16 N/A
1:55 pm 13:55 Sunny 48 9 27 -3 43 43 ESE 10 17 30.65 1038 10 16 N/A
2:15 pm 14:15 Sunny 48 9 27 -3 43 43 SE 9 15 30.65 1038 10 16 N/A
2:35 pm 14:35 Sunny 50 10 27 -3 40 40 E 12 19 30.62 1037 10 16 N/A
2:55 pm 14:55 Sunny 50 10 27 -3 40 40 ESE 5 7 30.62 1037 10 16 N/A
3:15 pm 15:15 Sunny 50 10 27 -3 40 40 NE 9 15 30.62 1037 10 16 N/A
3:35 pm 15:35 Sunny 50 10 28 -2 43 43 ENE 12 19 30.59 1036 10 16 N/A
3:55 pm 15:55 Sunny 50 10 28 -2 43 43 ENE 6 9 30.59 1036 10 16 N/A
4:15 pm 16:15 Sunny 50 10 28 -2 43 43 ESE 9 15 30.59 1036 10 16 N/A
4:35 pm 16:35 Sunny 50 10 27 -3 40 40 SE 10 17 30.59 1036 10 16 N/A
4:55 pm 16:55 Sunny 50 10 28 -2 43 43 SE 8 13 30.59 1036 10 16 N/A
5:15 pm 17:15 Sunny 50 10 28 -2 43 43 SE 8 13 30.59 1036 10 16 N/A
5:35 pm 17:35 Sunny 50 10 28 -2 43 43 ESE 14 22 30.59 1036 10 16 N/A
5:55 pm 17:55 Sunny 50 10 28 -2 43 43 SE 8 13 30.59 1036 10 16 N/A
6:15 pm 18:15 Sunny 50 10 28 -2 43 43 SE 12 19 30.59 1036 10 16 N/A
6:35 pm 18:35 Sunny 50 10 28 -2 43 43 SE 8 13 30.59 1036 10 16 N/A
6:55 pm 18:55 Sunny 48 9 28 -2 46 46 SE 9 15 30.59 1036 10 16 N/A
7:15 pm 19:15 Sunny 46 8 28 -2 50 50 ESE 10 17 30.59 1036 10 16 N/A
7:35 pm 19:35 Clear 45 7 28 -2 53 53 SE 12 19 30.62 1037 10 16 N/A
7:55 pm 19:55 Clear 45 7 28 -2 53 53 SE 10 17 30.62 1037 10 16 N/A
8:15 pm 20:15 Clear 45 7 28 -2 53 53 SE 9 15 30.62 1037 10 16 N/A
8:35 pm 20:35 Clear 43 6 28 -2 57 57 SSE 8 13 30.65 1038 10 16 N/A
8:55 pm 20:55 Clear 43 6 30 -1 61 61 SE 7 11 30.65 1038 10 16 N/A
9:15 pm 21:15 Clear 43 6 30 -1 61 61 SSE 6 9 30.65 1038 10 16 N/A
9:35 pm 21:35 Clear 43 6 30 -1 61 61 S 5 7 30.65 1038 10 16 N/A
9:55 pm 21:55 Clear 41 5 30 -1 66 66 SSE 6 9 30.65 1038 10 16 N/A
10:15 pm 22:15 Clear 41 5 30 -1 66 66 SSE 6 9 30.65 1038 10 16 N/A
10:35 pm 22:35 Clear 41 5 30 -1 66 66 SE 7 11 30.65 1038 10 16 N/A
10:55 pm 22:55 Clear 41 5 30 -1 66 66 SSE 8 13 30.65 1038 10 16 N/A
11:15 pm 23:15 Clear 41 5 32 undefined 70 70 S 9 15 30.65 1038 10 16 N/A
11:35 pm 23:35 Clear 39 4 32 undefined 75 75 S 7 11 30.65 1038 10 16 N/A
11:55 pm 23:55 Clear 37 3 32 undefined 81 81 S 10 17 30.65 1038 10 16 N/A

Powered by AerisWeather